Weather History for LTBU - December, 2012

Change the Weather History Date:

Saturday, December 8, 2012

  Actual Average (LTBA) Record (LTBA)
Temperature  
Mean Temperature 40 °F -  
Max Temperature 48 °F 50 °F 60 °F (2005)
Min Temperature 32 °F 42 °F 34 °F (2013)
Degree Days  
Heating Degree Days 25    
Moisture  
Dew Point 36 °F    
Average Humidity 87    
Maximum Humidity 100    
Minimum Humidity 71    
Precipitation  
Precipitation 0.00 in - - ()
Sea Level Pressure  
Sea Level Pressure 30.01 in    
Wind  
Wind Speed 7 mph ()    
Max Wind Speed 14 mph    
Max Gust Speed -    
Visibility 6.2 miles    
Events      
Averages and records for this station are not official NWS values.
T = Trace of Precipitation, MM = Missing Value Source: Averaged Metar Reports

Daily Weather History Graph

Daily Weather History Graph

Search for Another Location

Airport or City:

Trip Planner

Search our weather history database for the weather conditions in past years. The results will help you decide how hot, cold, wet, or windy it might be!

Date:

Astronomy

Dec. 08, 2012 Rise Set
Actual Time 7:21 AM EET 4:39 PM EET
Civil Twilight 6:50 AM EET 5:10 PM EET
Nautical Twilight 6:15 AM EET 5:44 PM EET
Astronomical Twilight 5:42 AM EET 6:18 PM EET
Moon 1:21 AM EET (12/8) 1:00 PM EET (12/8)
Length of Visible Light 10h 20m
Length of Day
9h 18m
Waning Crescent, 31% of the Moon is Illuminated
Dec 8
Waning Crescent
Dec 13
New
Dec 20
First Quarter
Dec 28
Full
Jan 5
Last Quarter

Hourly Weather History & Observations

Time (EET) Temp. Windchill Dew Point Humidity Pressure Visibility Wind Dir Wind Speed Gust Speed Precip Events Conditions
12:20 AM 35.6 °F 30.7 °F 33.8 °F 93% 30.04 in 6.2 mi NNE 5.8 mph - N/A   Mostly Cloudy
12:50 AM 37.4 °F 32.8 °F 33.8 °F 87% 30.04 in 6.2 mi NNE 5.8 mph - N/A   Mostly Cloudy
1:20 AM 35.6 °F 29.2 °F 32.0 °F 87% 30.04 in 6.2 mi North 8.1 mph - N/A   Mostly Cloudy
1:50 AM 33.8 °F 28.6 °F 32.0 °F 93% 30.04 in 6.2 mi NNE 5.8 mph - N/A   Mostly Cloudy
2:50 AM 33.8 °F 29.6 °F 32.0 °F 93% 30.06 in 6.2 mi NNE 4.6 mph - N/A   Mostly Cloudy
3:20 AM 33.8 °F 27.0 °F 32.0 °F 93% 30.04 in 6.2 mi North 8.1 mph - N/A   Mostly Cloudy
3:50 AM 33.8 °F 27.0 °F 32.0 °F 93% 30.04 in 6.2 mi NNE 8.1 mph - N/A   Mostly Cloudy
4:20 AM 33.8 °F 27.7 °F 32.0 °F 93% 30.04 in 6.2 mi NNE 6.9 mph - N/A   Mostly Cloudy
4:50 AM 32.0 °F 27.5 °F 32.0 °F 100% 30.04 in 6.2 mi NNE 4.6 mph - N/A   Mostly Cloudy
5:20 AM 33.8 °F 27.7 °F 33.8 °F 100% 30.04 in 6.2 mi NE 6.9 mph - N/A   Mostly Cloudy
6:20 AM 33.8 °F 26.4 °F 32.0 °F 93% 30.04 in 6.2 mi NE 9.2 mph - N/A   Mostly Cloudy
6:50 AM 33.8 °F 27.0 °F 33.8 °F 100% 30.04 in 6.2 mi NE 8.1 mph - N/A   Mostly Cloudy
7:20 AM 33.8 °F 26.4 °F 33.8 °F 100% 30.04 in 6.2 mi NE 9.2 mph - N/A   Scattered Clouds
7:50 AM 33.8 °F 27.0 °F 33.8 °F 100% 30.04 in 6.2 mi NE 8.1 mph - N/A   Scattered Clouds
8:20 AM 35.6 °F 28.6 °F 35.6 °F 100% 30.06 in 6.2 mi ENE 9.2 mph - N/A   Scattered Clouds
8:50 AM 39.2 °F 34.2 °F 37.4 °F 93% 30.06 in 6.2 mi NE 6.9 mph - N/A   Scattered Clouds
9:20 AM 39.2 °F 37.0 °F 37.4 °F 93% 30.06 in 6.2 mi Variable 3.5 mph - N/A   Scattered Clouds
9:50 AM 41.0 °F 38.0 °F 39.2 °F 93% 30.06 in 6.2 mi ENE 4.6 mph - N/A   Mostly Cloudy
10:20 AM 44.6 °F 42.2 °F 41.0 °F 87% 30.06 in 6.2 mi East 4.6 mph - N/A   Mostly Cloudy
10:50 AM 44.6 °F 40.2 °F 41.0 °F 87% 30.06 in 6.2 mi SSE 8.1 mph - N/A   Scattered Clouds
11:20 AM 46.4 °F 41.5 °F 39.2 °F 76% 30.04 in 6.2 mi SSE 10.4 mph - N/A   Scattered Clouds
12:20 PM 48.2 °F - 39.2 °F 71% 30.04 in 6.2 mi SSE 11.5 mph - N/A   Scattered Clouds
12:50 PM 46.4 °F 41.1 °F 41.0 °F 81% 30.01 in 6.2 mi SSE 11.5 mph - N/A   Scattered Clouds
1:20 PM 46.4 °F 40.7 °F 39.2 °F 76% 30.01 in 6.2 mi SE 12.7 mph - N/A   Scattered Clouds
1:50 PM 46.4 °F 40.7 °F 37.4 °F 71% 30.01 in 6.2 mi SE 12.7 mph - N/A   Scattered Clouds
2:20 PM 48.2 °F - 39.2 °F 71% 29.98 in 6.2 mi SE 13.8 mph - N/A   Scattered Clouds
2:50 PM 46.4 °F 40.7 °F 37.4 °F 71% 29.98 in 6.2 mi SE 12.7 mph - N/A   Scattered Clouds
3:20 PM 46.4 °F 41.1 °F 37.4 °F 71% 29.98 in 6.2 mi SE 11.5 mph - N/A   Scattered Clouds
3:50 PM 44.6 °F 40.2 °F 37.4 °F 76% 29.98 in 6.2 mi SE 8.1 mph - N/A   Scattered Clouds
4:20 PM 44.6 °F 40.2 °F 39.2 °F 81% 29.98 in - ESE 8.1 mph - N/A   Clear
4:50 PM 42.8 °F 38.0 °F 37.4 °F 81% 29.98 in - ESE 8.1 mph - N/A   Clear
5:20 PM 42.8 °F 38.6 °F 37.4 °F 81% 29.98 in - East 6.9 mph - N/A   Clear
5:50 PM 41.0 °F 36.4 °F 37.4 °F 87% 29.98 in - East 6.9 mph - N/A   Clear
6:20 PM 41.0 °F 35.8 °F 37.4 °F 87% 29.98 in - East 8.1 mph - N/A   Clear
6:50 PM 41.0 °F 35.8 °F 37.4 °F 87% 29.98 in - East 8.1 mph - N/A   Clear
7:20 PM 39.2 °F 33.0 °F 37.4 °F 93% 29.98 in - ENE 9.2 mph - N/A   Clear
7:50 PM 39.2 °F 33.6 °F 35.6 °F 87% 29.98 in - ENE 8.1 mph - N/A   Clear
8:20 PM 39.2 °F 33.0 °F 35.6 °F 87% 29.95 in - East 9.2 mph - N/A   Clear
8:50 PM 39.2 °F 33.6 °F 35.6 °F 87% 29.95 in - ENE 8.1 mph - N/A   Clear
9:20 PM 41.0 °F 35.8 °F 35.6 °F 81% 29.95 in - East 8.1 mph - N/A   Clear
9:50 PM 39.2 °F 33.6 °F 35.6 °F 87% 29.95 in - East 8.1 mph - N/A   Clear
10:20 PM 41.0 °F 35.8 °F 37.4 °F 87% 29.92 in - East 8.1 mph - N/A   Clear
10:50 PM 41.0 °F 35.2 °F 37.4 °F 87% 29.92 in - East 9.2 mph - N/A   Clear
11:20 PM 41.0 °F 35.8 °F 37.4 °F 87% 29.92 in - East 8.1 mph - N/A   Clear
11:50 PM 41.0 °F 35.8 °F 37.4 °F 87% 29.89 in - ESE 8.1 mph - N/A   Clear